Date String (YYYY-MM-DD hh:mm:ss) UTC,Instrument flags,Ambient pressure (hPa),Sample flow (lpm),Bypass flow (lpm),Sample temperature (°C),Ambient temperature (°C),ASC tube jacket temperature (°C),LED temperature (°C),Box temperature (°C),Sample RH (%),Span deviation,Mass concentration (μg/m³),Mass concentration (μg/m³),Mass concentration (μg/m³)
DateTimeUTC,F1_M11,P_M11,Q1_M11,Q2_M11,T1_M11,T2_M11,T3_M11,T4_M11,T5_M11,U1_M11,ZSPAN_M11,X0_M11,X2_M11,X1_M11
2022-10-15 03:00:00,,0824.4,5.01,0.00,29.9,28.6,00.0,38.7,31.7,06.6,0000.0,0007.68,0002.97,0002.37
2022-10-15 03:01:00,,0824.4,4.99,0.00,29.9,28.5,00.0,38.7,31.7,06.5,0000.0,0007.38,0002.91,0002.35
2022-10-15 03:02:00,,0824.6,5.01,0.00,29.9,28.5,00.0,38.7,31.7,06.4,0000.0,0007.06,0002.83,0002.34
2022-10-15 03:03:00,,0824.7,4.99,0.00,29.9,28.6,00.0,38.7,31.8,06.5,0000.0,0006.76,0002.81,0002.31
2022-10-15 03:04:00,,0824.6,5.01,0.00,29.9,28.6,00.0,38.7,31.7,06.5,0000.0,0006.02,0002.78,0002.28
2022-10-15 03:05:00,,0824.6,4.99,0.00,29.9,28.6,00.0,38.7,31.8,06.9,0000.0,0006.83,0002.76,0002.26
2022-10-15 03:06:00,,0824.7,5.02,0.00,29.9,28.5,00.0,38.7,31.7,07.2,0000.0,0007.50,0002.83,0002.27
2022-10-15 03:07:00,,0824.7,4.99,0.00,29.9,28.5,00.0,38.7,31.7,07.4,0000.0,0006.72,0002.86,0002.28
2022-10-15 03:08:00,,0824.7,5.00,0.00,29.9,28.6,00.0,38.7,31.7,07.5,0000.0,0006.89,0002.92,0002.32
2022-10-15 03:09:00,,0824.6,4.99,0.00,30.0,28.6,00.0,38.8,31.8,07.6,0000.0,0007.35,0003.01,0002.37
2022-10-15 03:10:00,,0824.7,5.01,0.00,30.0,28.6,00.0,38.8,31.7,07.6,0000.0,0007.17,0003.10,0002.41
2022-10-15 03:11:00,,0824.6,4.98,0.00,30.0,28.6,00.0,38.8,31.8,07.5,0000.0,0008.15,0003.20,0002.48
2022-10-15 03:12:00,,0824.7,5.02,0.00,30.0,28.6,00.0,38.8,31.8,07.4,0000.0,0008.77,0003.30,0002.56
2022-10-15 03:13:00,,0824.6,4.98,0.00,30.0,28.6,00.0,38.8,31.8,07.5,0000.0,0009.32,0003.38,0002.65
2022-10-15 03:14:00,,0824.6,5.02,0.00,30.0,28.6,00.0,38.8,31.8,07.5,0000.0,0009.65,0003.44,0002.73
2022-10-15 03:15:00,,0824.6,4.99,0.00,30.0,28.6,00.0,38.8,31.8,07.4,0000.0,0010.33,0003.50,0002.82
2022-10-15 03:16:00,,0824.7,5.02,0.00,30.0,28.7,00.0,38.8,31.8,07.3,0000.0,0010.19,0003.56,0002.88
2022-10-15 03:17:00,,0824.9,4.99,0.00,30.0,28.7,00.0,38.8,31.9,07.3,0000.0,0009.78,0003.58,0002.94
2022-10-15 03:18:00,,0824.6,5.02,0.00,30.0,28.7,00.0,38.8,31.9,07.1,0000.0,0010.05,0003.64,0002.98
2022-10-15 03:19:00,,0824.6,4.99,0.00,30.0,28.7,00.0,38.8,31.9,07.1,0000.0,0010.93,0003.67,0002.99
2022-10-15 03:20:00,,0824.7,5.01,0.00,30.0,28.7,00.0,38.8,31.9,07.1,0000.0,0011.03,0003.65,0002.98
2022-10-15 03:21:00,,0824.7,4.99,0.00,30.0,28.7,00.0,38.8,31.9,07.2,0000.0,0011.17,0003.63,0002.98
2022-10-15 03:22:00,,0824.6,5.00,0.00,30.0,28.8,00.0,38.8,31.9,07.1,0000.0,0010.48,0003.56,0002.95
2022-10-15 03:23:00,,0824.7,5.01,0.00,30.1,28.8,00.0,38.8,31.9,07.0,0000.0,0010.32,0003.50,0002.90
2022-10-15 03:24:00,,0824.7,4.98,0.00,30.1,28.8,00.0,38.9,31.9,06.9,0000.0,0010.53,0003.46,0002.82
2022-10-15 03:25:00,,0824.7,5.01,0.00,30.1,28.5,00.0,38.8,31.9,07.0,0000.0,0010.46,0003.42,0002.79
2022-10-15 03:26:00,,0824.7,4.99,0.00,30.1,26.9,00.0,38.8,31.8,07.0,0000.0,0009.99,0003.40,0002.76
2022-10-15 03:27:00,,0824.7,5.00,0.00,30.0,26.2,00.0,38.7,31.7,06.7,0000.0,0010.03,0003.38,0002.71
2022-10-15 03:28:00,,0824.7,5.01,0.00,29.9,26.3,00.0,38.7,31.4,06.7,0000.0,0010.03,0003.36,0002.65
2022-10-15 03:29:00,,0824.7,5.01,0.00,29.8,26.6,00.0,38.6,31.4,06.6,0000.0,0009.90,0003.30,0002.59
2022-10-15 03:30:00,,0824.7,4.99,0.00,29.7,26.9,00.0,38.6,31.4,06.6,0000.0,0008.79,0003.24,0002.54
2022-10-15 03:31:00,,0824.6,5.01,0.00,29.7,27.2,00.0,38.6,31.4,06.8,0000.0,0008.41,0003.18,0002.50
2022-10-15 03:32:00,,0824.7,5.00,0.00,29.6,27.4,00.0,38.6,31.4,06.8,0000.0,0008.15,0003.16,0002.47
2022-10-15 03:33:00,,0824.7,4.99,0.00,29.6,27.5,00.0,38.5,31.4,06.8,0000.0,0008.10,0003.15,0002.44
2022-10-15 03:34:00,,0824.7,5.02,0.00,29.6,27.6,00.0,38.5,31.4,06.7,0000.0,0007.59,0003.11,0002.41
2022-10-15 03:35:00,,0824.8,4.99,0.00,29.6,27.7,00.0,38.5,31.4,06.6,0000.0,0006.52,0003.04,0002.39
2022-10-15 03:36:00,,0824.6,5.01,0.00,29.6,27.8,00.0,38.5,31.4,06.5,0000.0,0005.77,0002.98,0002.33
2022-10-15 03:37:00,,0824.7,5.00,0.00,29.6,27.9,00.0,38.5,31.4,06.6,0000.0,0005.38,0002.88,0002.27
2022-10-15 03:38:00,,0824.6,5.01,0.00,29.6,28.0,00.0,38.5,31.4,06.5,0000.0,0004.69,0002.78,0002.24
2022-10-15 03:39:00,,0824.6,4.99,0.00,29.6,28.0,00.0,38.5,31.4,06.5,0000.0,0004.58,0002.70,0002.20
2022-10-15 03:40:00,,0824.6,5.02,0.00,29.6,28.1,00.0,38.4,31.5,06.5,0000.0,0004.50,0002.67,0002.18
2022-10-15 03:41:00,,0824.7,4.99,0.00,29.6,28.1,00.0,38.4,31.5,06.6,0000.0,0004.54,0002.64,0002.15
2022-10-15 03:42:00,,0824.6,5.01,0.00,29.6,28.2,00.0,38.4,31.5,06.5,0000.0,0004.50,0002.61,0002.11
2022-10-15 03:43:00,,0824.7,4.99,0.00,29.6,28.2,00.0,38.5,31.5,06.5,0000.0,0004.15,0002.57,0002.08
2022-10-15 03:44:00,,0824.6,5.00,0.00,29.6,28.2,00.0,38.5,31.5,06.5,0000.0,0004.01,0002.52,0002.03
2022-10-15 03:45:00,,0824.7,5.00,0.00,29.6,28.2,00.0,38.5,31.5,06.6,0000.0,0004.23,0002.52,0002.00
2022-10-15 03:46:00,,0824.7,5.01,0.00,29.7,28.2,00.0,38.5,31.5,06.6,0000.0,0004.44,0002.54,0001.99
2022-10-15 03:47:00,,0824.7,4.99,0.00,29.7,28.3,00.0,38.5,31.5,06.5,0000.0,0004.68,0002.61,0002.00
2022-10-15 03:48:00,,0824.7,5.01,0.00,29.7,28.3,00.0,38.5,31.5,06.5,0000.0,0005.06,0002.64,0001.99
2022-10-15 03:49:00,,0824.7,5.00,0.00,29.7,28.3,00.0,38.5,31.5,06.5,0000.0,0005.30,0002.70,0001.99
2022-10-15 03:50:00,,0824.7,5.01,0.00,29.7,28.3,00.0,38.5,31.5,06.6,0000.0,0005.34,0002.72,0001.99
2022-10-15 03:51:00,,0824.7,4.99,0.00,29.7,28.2,00.0,38.5,31.5,06.6,0000.0,0005.49,0002.72,0001.99
2022-10-15 03:52:00,,0824.8,5.01,0.00,29.7,28.2,00.0,38.5,31.5,06.6,0000.0,0005.53,0002.74,0001.99
2022-10-15 03:53:00,,0824.7,4.98,0.00,29.7,28.2,00.0,38.5,31.5,06.5,0000.0,0006.40,0002.73,0001.99
2022-10-15 03:54:00,,0824.7,5.01,0.00,29.7,28.2,00.0,38.5,31.5,06.5,0000.0,0006.24,0002.72,0001.98
2022-10-15 03:55:00,,0824.6,5.00,0.00,29.7,28.2,00.0,38.5,31.5,06.6,0000.0,0006.24,0002.72,0001.99
2022-10-15 03:56:00,,0824.7,5.00,0.00,29.7,28.2,00.0,38.5,31.5,06.5,0000.0,0006.09,0002.73,0001.99
2022-10-15 03:57:00,,0824.7,5.00,0.00,29.7,28.2,00.0,38.5,31.5,06.6,0000.0,0005.75,0002.66,0001.99
2022-10-15 03:58:00,,0824.7,4.99,0.00,29.7,28.2,00.0,38.5,31.5,06.6,0000.0,0005.96,0002.59,0001.99
2022-10-15 03:59:00,,0824.8,5.01,0.00,29.7,28.2,00.0,38.5,31.5,06.6,0000.0,0005.87,0002.62,0002.00
